Voltar ao catálogo

SITRO-AIS-37

AtivoNavegaçãoSSO
NORAD 61780·PAYLOAD·🇷🇺 Russia
Este nome de satélite ainda não foi confirmado por fontes oficiais.

Lançado Nov 4, 2024 de Vostochny Cosmodrome

Loading…

Próximas Passagens (próximas 24 horas)

TLE

AtualizadoSource: Space-Track

Época: Sep 14, 2026, 22:29 UTC

1 61780U 24199AX  26257.93698754  .00093273  00000-0  79917-3 0  9990
2 61780  97.2722 136.8824 0003033 336.0194  24.0926 15.69125795148466

Acompanhe SITRO-AIS-37 em tempo real com AllMySat

Download on the App Store